Location: Amanico Ergina Village
(37.7824°N, 122.4366°W)
Time: 08:22:58
(UTC+00:00)

CZ-4B R/B - Pass Details

Date: 29 October 2020
Orbit: 388 x 461 km, 97.6° (Epoch: 03 December)

Event Time Altitude Azimuth Distance (km) Brightness Sun altitude
Rises 12:04:53 0° 132° (SE) 2,483 5.7 -29.7°
Reaches altitude 10° 12:07:25 10° 112° (ESE) 1,610 4.9 -29.2°
Maximum altitude 12:09:45 17° 70° (ENE) 1,231 4.3 -28.7°
Drops below altitude 10° 12:12:05 10° 27° (NNE) 1,606 4.5 -28.3°
Enters shadow 12:12:24 - 23° (NNE) 1,702 4.6 -28.2°
